[[{"header":{"parameterUnit":"m.s-1","parameterCategory":1,"la1":30.2991,"la2":30.254,"lo1":-89.0895,"lo2":-89.0444,"dy":0.0017,"dx":0.0017,"nx":28,"ny":28,"refTime":"2025-05-20T21:00:00:Z","depth":0,"parameterNumber":2,"parameterNumberName":"U-component_of_WINDS"},"data":[0,0,0,0,0,0,0,0,0,0,0,0,0,0,0,0,0,0,0,0,0,0,0,0,0,0,0,0,0,0,0,0,0,0,0,0,0,0,0,0,0,0,0,0,0,0,0,0,0,0,0,0,0,0,0,0,0,0,-1.8543,-1.8544,0,-1.8561,-1.8561,-1.8561,-1.8605,-1.8606,-1.8607,-1.8608,-1.8623,-1.8623,-1.8622,0,0,0,0,0,0,0,0,0,0,0,0,0,-1.8546,-1.8546,-1.8543,-1.8544,-1.8544,-1.8561,-1.8561,-1.8562,-1.8605,-1.8606,-1.8607,-1.8608,-1.8623,-1.8623,-1.8622,0,0,0,0,0,0,0,0,0,0,0,0,0,-1.8552,-1.8546,-1.8543,-1.8568,-1.857,-1.8561,-1.8561,-1.8562,-1.8605,-1.8606,-1.8607,-1.8609,-1.8624,-1.8623,-1.8622,-1.8591,0,0,-1.862,-1.862,0,0,0,0,0,0,0,0,-1.8552,-1.8552,-1.8564,-1.8566,-1.8569,-1.8582,-1.8568,-1.8571,-1.8604,-1.8591,-1.8608,-1.8609,-1.8608,-1.8609,-1.8609,-1.8591,-1.8592,-1.862,-1.862,-1.862,-1.8619,0,0,0,0,0,0,0,-1.8551,-1.8552,-1.855,-1.8564,-1.8567,-1.8577,-1.858,-1.8569,-1.8592,-1.8593,-1.8596,-1.8597,-1.861,-1.861,-1.861,-1.8592,-1.862,-1.862,-1.8619,-1.8619,-1.8549,-1.8548,0,0,0,0,0,0,-1.8548,-1.8551,-1.855,-1.8551,-1.8563,-1.8576,-1.8579,-1.8576,-1.8592,-1.8596,-1.8596,-1.8599,-1.861,-1.8611,-1.8611,-1.8574,-1.862,-1.8619,-1.8619,-1.8551,-1.8549,-1.8547,0,0,0,0,0,0,-1.8547,-1.8547,-1.8549,-1.8552,-1.8553,-1.8575,-1.8572,-1.8576,-1.8576,-1.8595,-1.8599,-1.8592,-1.8611,-1.8612,-1.8595,-1.8575,-1.8619,-1.8618,-1.8552,-1.855,-1.8548,-1.85,0,0,0,0,0,0,-1.8547,-1.8547,-1.8535,-1.8551,-1.8553,-1.8534,-1.857,-1.8575,-1.8575,-1.8579,-1.8592,-1.8595,-1.8612,-1.8596,-1.8595,-1.8575,-1.8618,-1.8554,-1.8551,-1.8549,-1.8504,-1.8497,-1.8491,0,0,0,0,0,-1.8547,-1.852,-1.8534,-1.8534,-1.8538,-1.8532,-1.8533,-1.8554,-1.8573,-1.8561,-1.8574,-1.8595,-1.8578,-1.8594,-1.8593,-1.8572,-1.8555,-1.8552,-1.8549,-1.8506,-1.8498,-1.8491,0,0,0,0,0,0,-1.85,-1.8523,-1.8538,-1.8516,-1.8522,-1.854,-1.8525,-1.8544,-1.8544,-1.8548,-1.8574,-1.8576,-1.8556,-1.8563,-1.8581,-1.8543,-1.857,-1.8567,-1.8538,-1.853,-1.8524,-1.8522,-1.8617,0,0,0,0,0,-1.8487,-1.8481,-1.8501,-1.848,-1.8482,-1.8503,-1.8501,-1.8517,-1.8524,-1.8526,-1.8538,-1.8543,-1.8539,-1.8535,-1.8533,-1.8506,-1.8509,-1.8491,-1.8485,-1.8479,-1.8475,-1.8461,-1.8453,-1.8536,-1.8536,-1.8537,0,0,-1.846,-1.8472,-1.8466,-1.847,-1.8477,-1.8469,-1.8505,-1.8495,-1.8489,-1.8525,-1.851,-1.8519,-1.8526,-1.8504,-1.8495,-1.8509,-1.8453,-1.8475,-1.8471,-1.8469,-1.8456,-1.8449,-1.8441,-1.8534,-1.8535,-1.8535,0,0,-1.8406,-1.8415,-1.8398,-1.8404,-1.8414,-1.8429,-1.8425,-1.844,-1.8447,-1.8433,-1.8459,-1.8453,-1.8446,-1.845,-1.8451,-1.8401,-1.842,-1.84,-1.8365,-1.8351,-1.8344,-1.8338,-1.8319,-1.8312,-1.8396,-1.8396,-1.8396,0,-1.8371,-1.8361,-1.8386,-1.8375,-1.8376,-1.8409,-1.8392,-1.8396,-1.8404,-1.8404,-1.842,-1.8412,-1.842,-1.8399,-1.8387,-1.8387,-1.8383,-1.8397,-1.8343,-1.8337,-1.8332,-1.8314,-1.8307,-1.8393,-1.8394,-1.8394,-1.8394,0,-1.8317,-1.831,-1.8294,-1.8302,-1.8302,-1.8287,-1.831,-1.8306,-1.8323,-1.8336,-1.8321,-1.8332,-1.8332,-1.8328,-1.8344,-1.831,-1.8318,-1.8339,-1.8366,-1.8321,-1.8305,-1.8298,-1.8389,-1.839,-1.8391,-1.8392,0,0,-1.8231,-1.8255,-1.8248,-1.8252,-1.8267,-1.8261,-1.8249,-1.825,-1.8245,-1.8251,-1.824,-1.8234,-1.8253,-1.8254,-1.8271,-1.8259,-1.8217,-1.8281,-1.8281,-1.8267,-1.8179,-1.8162,-1.8153,-1.8231,-1.823,-1.8229,-1.8178,0,-1.8179,-1.8159,-1.8182,-1.8157,-1.815,-1.8183,-1.8172,-1.8179,-1.8191,-1.8187,-1.82,-1.8195,-1.8221,-1.8222,-1.8212,-1.8224,-1.8199,-1.8229,-1.822,-1.8219,-1.8214,-1.8145,-1.8127,-1.8078,-1.8171,-1.817,-1.817,0,-1.8116,-1.8119,-1.8092,-1.8109,-1.8107,-1.8096,-1.8099,-1.8096,-1.8105,-1.8114,-1.8117,-1.8137,-1.8126,-1.8155,-1.8138,-1.8158,-1.8156,-1.8162,-1.8161,-1.8159,-1.819,-1.8139,-1.8063,-1.8054,-1.816,-1.8161,-1.8161,0,-1.8054,-1.8052,-1.8036,-1.8038,-1.8057,-1.8049,-1.8057,-1.8067,-1.8067,-1.8069,-1.8069,-1.807,-1.807,-1.807,-1.8091,-1.811,-1.8072,-1.8103,-1.8078,-1.8077,-1.8066,-1.8066,-1.7986,-1.8069,-1.8069,-1.8069,-1.8069,0,-1.7992,-1.7975,-1.8008,-1.7998,-1.7979,-1.8007,-1.7987,-1.7998,-1.8007,-1.8,-1.8029,-1.802,-1.8049,-1.8044,-1.806,-1.8044,-1.8044,-1.8051,-1.8055,-1.8047,-1.8045,-1.8044,-1.8047,-1.8067,-1.8067,-1.8068,-1.8068,0,-1.7919,-1.7941,-1.7925,-1.7946,-1.795,-1.7935,-1.7952,-1.7943,-1.7958,-1.7948,-1.7947,-1.797,-1.7966,-1.7987,-1.7986,-1.7997,-1.7972,-1.7983,-1.7968,-1.7971,-1.7945,-1.7946,-1.7859,-1.7848,-1.7939,-1.7939,-1.7938,0,-1.7877,-1.7864,-1.7883,-1.7881,-1.7887,-1.7882,-1.7882,-1.7909,-1.7907,-1.7917,-1.7907,-1.7905,-1.7905,-1.7897,-1.7913,-1.7912,-1.7922,-1.7892,-1.7922,-1.7914,-1.7919,-1.7919,-1.7917,-1.7884,-1.7883,-1.7882,-1.7882,0,-1.78,-1.7812,-1.7811,-1.7813,-1.7812,-1.7816,-1.7821,-1.7817,-1.7846,-1.7843,-1.7839,-1.7839,-1.7839,-1.7836,-1.784,-1.7847,-1.7868,-1.7873,-1.7867,-1.7857,-1.7848,-1.7851,-1.7949,-1.7874,-1.7874,-1.7875,-1.7876,-1.7876,-1.774,-1.773,-1.7742,-1.774,-1.7747,-1.7751,-1.7744,-1.7758,-1.7756,-1.7758,-1.7775,-1.7768,-1.7778,-1.7784,-1.779,-1.7784,-1.7799,-1.779,-1.7788,-1.7785,-1.7779,-1.7851,-1.7785,-1.7786,-1.7786,-1.7786,-1.7786,0,-1.7663,-1.7672,-1.767,-1.7677,-1.7675,-1.7698,-1.7705,-1.7701,-1.7695,-1.7703,-1.7703,-1.7699,-1.7697,-1.7714,-1.7714,-1.7706,-1.7716,-1.7705,-1.7705,-1.7706,-1.7767,-1.7772,-1.7697,-1.7697,-1.7697,-1.7697,-1.7697,-1.7697,-1.7622,-1.7606,-1.762,-1.7608,-1.7618,-1.7611,-1.7613,-1.7617,-1.7624,-1.7618,-1.7617,-1.7629,-1.764,-1.7641,-1.764,-1.7645,-1.7643,-1.7628,-1.7636,-1.7693,-1.7701,-1.771,-1.7714,-1.7628,-1.7628,-1.7575,-1.7574,-1.7574]},{"header":{"parameterUnit":"m.s-1","parameterCategory":1,"la1":30.2991,"la2":30.254,"lo1":-89.0895,"lo2":-89.0444,"dy":0.0017,"dx":0.0017,"nx":28,"ny":28,"refTime":"2025-05-20T21:00:00:Z","depth":0,"parameterNumber":3,"parameterNumberName":"V-component_of_WINDS"},"data":[0,0,0,0,0,0,0,0,0,0,0,0,0,0,0,0,0,0,0,0,0,0,0,0,0,0,0,0,0,0,0,0,0,0,0,0,0,0,0,0,0,0,0,0,0,0,0,0,0,0,0,0,0,0,0,0,0,0,3.8616,3.8617,0,3.8679,3.868,3.868,3.8726,3.8726,3.8726,3.8727,3.8786,3.8787,3.8788,0,0,0,0,0,0,0,0,0,0,0,0,0,3.8532,3.8534,3.8616,3.8617,3.8618,3.8679,3.868,3.868,3.8726,3.8726,3.8727,3.8727,3.8785,3.8787,3.8788,0,0,0,0,0,0,0,0,0,0,0,0,0,3.8579,3.8534,3.8616,3.8648,3.8651,3.8679,3.868,3.8681,3.8725,3.8726,3.8727,3.8727,3.8785,3.8787,3.8788,3.8788,0,0,3.8794,3.8795,0,0,0,0,0,0,0,0,3.8576,3.8582,3.8643,3.8646,3.865,3.8695,3.8672,3.8716,3.8725,3.8697,3.8727,3.8728,3.8755,3.8759,3.8769,3.879,3.8793,3.8794,3.8795,3.8796,3.8796,0,0,0,0,0,0,0,3.8573,3.858,3.8641,3.8643,3.8648,3.8658,3.8665,3.868,3.8722,3.87,3.8703,3.871,3.8757,3.8767,3.8771,3.8794,3.8794,3.8796,3.8797,3.8797,3.8818,3.8818,0,0,0,0,0,0,3.8565,3.8577,3.8639,3.8643,3.8614,3.8659,3.8667,3.868,3.8722,3.8729,3.871,3.8712,3.8764,3.8769,3.8773,3.8776,3.8796,3.8798,3.8799,3.8819,3.8818,3.8817,0,0,0,0,0,0,3.8563,3.8571,3.8636,3.8611,3.862,3.866,3.8674,3.8681,3.8692,3.8729,3.8736,3.8713,3.8765,3.8771,3.8784,3.8779,3.8798,3.88,3.8819,3.8818,3.8818,3.8781,0,0,0,0,0,0,3.8561,3.857,3.8571,3.8611,3.8621,3.8647,3.8673,3.8682,3.8695,3.8699,3.8735,3.8741,3.8766,3.8781,3.8786,3.8781,3.8801,3.882,3.8819,3.8818,3.8782,3.8779,3.8775,0,0,0,0,0,3.8558,3.8556,3.857,3.8578,3.8623,3.8647,3.8653,3.8683,3.8695,3.8695,3.872,3.874,3.8778,3.8782,3.8788,3.8784,3.882,3.8819,3.8818,3.8784,3.8779,3.8775,0,0,0,0,0,0,3.8512,3.8562,3.8578,3.859,3.8614,3.8655,3.8657,3.8677,3.8697,3.8699,3.8734,3.8742,3.8752,3.8769,3.8773,3.8786,3.8802,3.8802,3.8774,3.877,3.8767,3.8762,3.8803,0,0,0,0,0,3.8504,3.8521,3.8563,3.8569,3.858,3.8616,3.8628,3.8649,3.8675,3.8685,3.871,3.8733,3.8751,3.8761,3.8779,3.8785,3.8794,3.8785,3.8782,3.8778,3.8778,3.8783,3.878,3.8814,3.8814,3.8814,0,0,3.8486,3.8516,3.8524,3.856,3.8582,3.8597,3.8624,3.8639,3.8651,3.8686,3.8702,3.8721,3.8749,3.8759,3.8764,3.8773,3.8771,3.8777,3.8774,3.8775,3.8782,3.8778,3.8775,3.8813,3.8813,3.8813,0,0,3.8462,3.8486,3.8495,3.8516,3.8549,3.8573,3.8575,3.8613,3.8628,3.8644,3.8671,3.8685,3.8714,3.8733,3.8747,3.8731,3.8751,3.8736,3.8717,3.8722,3.8719,3.8717,3.8712,3.871,3.8735,3.8735,3.8735,0,3.8436,3.8462,3.8496,3.851,3.8525,3.856,3.8569,3.8587,3.8623,3.8632,3.8643,3.8681,3.8702,3.8718,3.8714,3.8724,3.8727,3.8732,3.8717,3.8715,3.8714,3.8709,3.8707,3.8733,3.8734,3.8734,3.8734,0,3.8428,3.8445,3.8448,3.8485,3.85,3.8511,3.8546,3.8557,3.8577,3.86,3.8616,3.8643,3.8668,3.8673,3.8691,3.8691,3.8696,3.8711,3.8728,3.8708,3.8705,3.8703,3.8731,3.8731,3.8732,3.8732,0,0,3.8376,3.8433,3.8433,3.8451,3.849,3.8504,3.8516,3.8542,3.8551,3.8575,3.8586,3.8611,3.8626,3.8641,3.8662,3.8666,3.8653,3.8681,3.8682,3.8675,3.8655,3.8644,3.8641,3.8666,3.8666,3.8666,3.8653,0,3.8359,3.8385,3.8417,3.8431,3.8448,3.8482,3.8493,3.8517,3.8539,3.8555,3.8579,3.8596,3.8614,3.8624,3.8629,3.8654,3.865,3.8655,3.8676,3.8677,3.8669,3.8639,3.8627,3.8613,3.8652,3.8651,3.8651,0,3.8342,3.8366,3.8383,3.8423,3.8431,3.844,3.8467,3.8482,3.8511,3.8526,3.8544,3.8568,3.8582,3.8597,3.8616,3.8619,3.863,3.8643,3.8643,3.8646,3.8663,3.8642,3.8609,3.8607,3.8649,3.8649,3.8649,0,3.8303,3.834,3.8356,3.837,3.8415,3.8421,3.844,3.847,3.8484,3.8507,3.8516,3.8539,3.8552,3.8569,3.8598,3.8607,3.8615,3.8632,3.8627,3.8627,3.8627,3.8627,3.8596,3.8633,3.8633,3.8634,3.8634,0,3.8281,3.829,3.834,3.8349,3.836,3.8396,3.8406,3.8427,3.8453,3.8467,3.8497,3.8508,3.8546,3.8562,3.8584,3.8597,3.8602,3.8615,3.8621,3.8612,3.8611,3.862,3.8622,3.8633,3.8633,3.8633,3.8633,0,3.824,3.8273,3.8293,3.8335,3.8346,3.8352,3.8388,3.8398,3.8422,3.8439,3.8445,3.8482,3.8502,3.8533,3.8561,3.8577,3.8586,3.8595,3.8577,3.8581,3.8574,3.8575,3.8549,3.8547,3.8585,3.8584,3.8584,0,3.8223,3.8232,3.8276,3.8288,3.8307,3.8326,3.8341,3.8376,3.839,3.8424,3.843,3.8453,3.8474,3.8504,3.8533,3.8555,3.8565,3.8555,3.8569,3.8561,3.8566,3.8565,3.8566,3.8551,3.8551,3.855,3.855,0,3.8191,3.8208,3.8229,3.8257,3.8275,3.8298,3.8322,3.833,3.837,3.8384,3.8407,3.8423,3.8453,3.8476,3.8502,3.852,3.8542,3.8545,3.8546,3.8537,3.8527,3.8533,3.8568,3.8546,3.8546,3.8547,3.8547,3.8547,3.8162,3.8172,3.8205,3.8228,3.8251,3.8273,3.8285,3.8311,3.8331,3.836,3.8379,3.84,3.8429,3.8467,3.8484,3.8501,3.851,3.851,3.851,3.8509,3.8507,3.8524,3.8505,3.8506,3.8506,3.8506,3.8506,0,3.8132,3.8155,3.8177,3.8211,3.8229,3.8249,3.8277,3.8291,3.831,3.8336,3.8356,3.8381,3.8404,3.8434,3.8459,3.8466,3.8476,3.8471,3.8471,3.8475,3.8497,3.8495,3.8462,3.8462,3.8462,3.8462,3.8462,3.8462,3.8119,3.8136,3.8157,3.8185,3.8208,3.8231,3.8245,3.8266,3.8287,3.8315,3.8334,3.8355,3.8382,3.8409,3.843,3.8438,3.8446,3.8438,3.8449,3.8469,3.8473,3.8477,3.8475,3.8439,3.8439,3.8426,3.8426,3.8426]}]]